Regional Weather Roundup
Issued by NWS

Home | Current Version | Previous Version | Text Only | Print | Product List | Glossary On
Versions: 1 2 3 4 5 6 7 8 9 10 11 12 13 14 15 16 17 18 19 20 21 22 23 24 25 26 27 28 29 30 31 32 33 34 35 36 37 38 39 40 41 42 43 44 45 46 47 48 49 50
762
ASUS44 KJAN 021303
RWRMS

MISSISSIPPI HOURLY WEATHER ROUNDUP
NATIONAL WEATHER SERVICE JACKSON MS
800 AM CDT TUE SEP 02 2014

NOTE: "FAIR: INDICATES FEW OR NO CLOUDS BELOW 12,000 FEET WITH NO
SIGNIFICANT WEATHER AND/OR OBSTRUCTIONS TO VISIBILITY.

MSZ001>002-007>008-010>013-018>021-025>028-034>036-021400-
NORTHWEST MISSISSIPPI

CITY           SKY/WX    TMP DP  RH WIND       PRES   REMARKS
CLARKSDALE     CLOUDY    75  75 100 CALM      30.06R
CLEVELAND      FAIR      77  76  98 S7        30.03S
GREENWOOD      PTSUNNY   77  74  90 S6        30.06R
GREENVILLE     PTSUNNY   76  75  97 SE5       30.04R
GRENADA        FAIR      73  72  94 SE3       30.07S
OLIVE BRANCH   PTSUNNY   73  72  94 S8        30.05S
OXFORD         FAIR      75  72  88 S3        30.08S
TUNICA         CLOUDY    73  73 100 S3        30.06R
$$

MSZ003>006-009-014>017-022>024-029>033-037>039-021400-
NORTHEAST MISSISSIPPI

CITY           SKY/WX    TMP DP  RH WIND       PRES   REMARKS
BELMONT        FAIR      76  72  88 S7        30.09R
COLUMBUS AFB   SUNNY     77  73  88 S5        30.09R
CORINTH        FAIR      77  72  83 VRB5      30.06S
GOLDN TRIANGLE SUNNY     75  72  88 S5        30.09R
STARKVILLE     FAIR      73  72  94 CALM      30.08S
TUPELO         MOSUNNY   78  72  81 SW9       30.08R
$$

MSZ040-058-021400-
CENTRAL MISSISSIPPI

CITY           SKY/WX    TMP DP  RH WIND       PRES   REMARKS
JACKSON INTL   CLOUDY    77  75  93 S5        30.07R
JACKSON HAWKNS CLOUDY    77  74  90 S6        30.07R
MERIDIAN KEY   CLOUDY    75  73  93 CALM      30.08R
MERIDIAN NAS   CLOUDY    75  73  93 CALM      30.08R
RAYMOND        CLOUDY    77  72  83 CALM      30.06R
VICKSBURG      MOSUNNY   78  75  90 S3        30.05R
$$

MSZ059>079-021400-
SOUTH MISSISSIPPI

CITY           SKY/WX    TMP DP  RH WIND       PRES   REMARKS
BROOKHAVEN     FOG       75  75 100 S5        30.08S VSB 3/4
HATTIESBURG    CLOUDY    76  74  93 SE3       30.08R
MCCOMB         CLOUDY    77  75  93 SE7       30.06S FOG
NATCHEZ        PTSUNNY   77  73  88 S6        30.05R
PINE BELT      CLOUDY    75  72  88 S3        30.09R
$$

MSZ080>082-021400-
COASTAL MISSISSIPPI

CITY           SKY/WX    TMP DP  RH WIND       PRES   REMARKS
BILOXI         SUNNY     79  77  91 NE3       30.08R
PASCAGOULA     MOSUNNY   79  77  94 CALM      30.08R
GULFPORT       MOSUNNY   83  76  79 CALM      30.07R HX  91
$$



USA.gov is the U.S. government's official web portal to all federal, state and local government web resources and services.